Regional Weather Roundup
Issued by NWS Bismarck, ND

Home | Current Version | Previous Version | Text Only | Print | Product List | Glossary On
Versions: 1 2 3 4 5 6 7 8 9 10 11 12 13 14 15 16 17 18 19 20 21 22 23 24 25 26 27 28 29 30 31 32 33 34 35 36 37 38 39 40 41 42 43 44 45 46 47 48 49 50
000
ASUS43 KBIS 261701
RWRBIS

NWR BROADCAST TEXT
NATIONAL WEATHER SERVICE BISMARCK ND
1100 AM CST MON JAN 26 2015

NOTE: "FAIR" INDICATES FEW OR NO CLOUDS BELOW 12,000 FEET WITH NO
SIGNIFICANT WEATHER AND/OR OBSTRUCTIONS TO VISIBILITY.


CITY           SKY/WX    TMP DP  RH WIND       PRES   REMARKS
WILLISTON      SUNNY     42  31  64 SW3       29.98R
MINOT          CLOUDY    39  31  72 W17       29.93R
MINOT AFB      CLOUDY    37  36  95 W13       29.92R
BISMARCK       MOSUNNY   45  31  58 NW14      29.95R
DICKINSON      MOSUNNY   43  33  68 NW13      29.97R
GARRISON         N/A     40  32  73 NW12      29.95R
HETTINGER ARPT MOSUNNY   45  33  63 W14       30.01R
JAMESTOWN      SUNNY     39  31  72 NW21G26   29.86R
CARRINGTON     FAIR      36  36 100 MISG      29.88R
CROSBY         FAIR      41  32  70 W7        29.96R
HARVEY         FAIR      36  32  87 NW17G23   29.90R
HAZEN          CLOUDY    41  32  70 NW8       29.97R
LINTON         FAIR      41  37  87 NW14      29.95R
MANDAN         FAIR      45  32  61 NW15G22   29.95S
OAKES            N/A     39  34  81 NW16      29.86R
WATFORD CITY   FAIR      39  32  75 W6        29.97R
$$

CITY           SKY/WX    TMP DP  RH WIND       PRES   REMARKS
GRAND FORKS    CLOUDY    40  31  70 NW18G24   29.78R
GRAND FORKS AF CLOUDY    40  31  70 N16       29.80R
DEVILS LAKE    SUNNY     36  28  75 NW14      29.84R
FARGO          MOSUNNY   42  32  67 NW21      29.78R
CAVALIER       CLOUDY    32  28  86 N24G32    29.81R WCI  19
GWINNER        SUNNY     41  36  81 NW17G23   29.85R
LANGDON        PTSUNNY   36  30  80 NW18      29.80R
$$

CITY           SKY/WX    TMP DP  RH WIND       PRES   REMARKS
ABERDEEN       SUNNY     42  34  73 W10       29.92R
MOBRIDGE       SUNNY     46  35  65 NW12      29.93R
BUFFALO          N/A     49  33  54 W7        29.97R
RAPID CITY     MOSUNNY   62  29  28 NW13      30.06R
GLASGOW        MOSUNNY   37  32  82 CALM      29.97S
SIDNEY         SUNNY     39  34  81 CALM      30.02R
WOLF POINT     SUNNY     37  32  82 W3        29.99F
GLENDIVE       PTSUNNY   45  34  65 CALM      30.01S
MILES CITY     MOSUNNY   47  33  58 SW7       30.02S
BAKER          PTSUNNY   42  33  70 W5        30.02R
$$

CITY           SKY/WX    TMP DP  RH WIND       PRES   REMARKS
BILLINGS       CLOUDY    47  29  49 SW17      30.10S
GREAT FALLS    PTSUNNY   58  27  30 SW24G32   30.02S
$$




USA.gov is the U.S. government's official web portal to all federal, state and local government web resources and services.